www.pogodaiklimat.ru

Погода и климат >> Архив погоды >> Беларусь >> Слуцк


ПОГОДА в Слуцке

  • Прогноз погоды в Слуцке
  • Монитор погоды в Слуцке
  • Климат города

АРХИВ ПОГОДЫ в Слуцке

Время (UTC), дата Ветер
(напр.,м/с)
 
Видим.   Явления Облачность Т
(С)
Тd
(С)
f
(%)
Тe
(С)
Тes
(С)
Комфортность P
(гПа)
Po
(гПа)
Тmin
(С)
Tmax
(С)
R
(мм)
R24
(мм)
S
(см)
03 13.02 В 1 14 км 9/0
[Ac und]
-2.9 -3.6 95 -5 -5 1017.6 997.1
06 13.02 штиль 0 3500 м дымка 9/4 600 м
[Sc Ac und]
-3.6 -4.1 96 -5 -5 1019.0 998.2 -3.8 0.0 14
09 13.02 В 1 6000 м в посл. час туман 10/10 480 м
[St]
-1.8 -2.4 96 -4 -4 1019.4 998.8
12 13.02 ЮВ 2 10 км {туман} 10/10 420 м
[St]
-0.9 -3.0 86 -5 -5 1019.3 998.8
15 13.02 ЮВ 3 3200 м снег 10/0 300 м
[As op]
-2.0 -3.5 89 -7 -7 1019.6 999.0
18 13.02 ЮВ 2 12 км {снег} 10/0
[As op]
-3.8 -7.9 73 -8 -8 1020.3 999.5 -0.5 0.2
21 13.02 ЮВ 2 12 км 10/0
[As op]
-5.7 -9.1 77 -10 -10 1020.8 999.9
00 14.02 ЮВ 2 10 км 9/9 900 м
[Sc]
-5.6 -8.6 79 -10 -10 1021.1 1000.2
03 14.02 штиль 0 10 км 9/9 1020 м
[Sc]
-8.5 -10.4 86 -9 -9 1021.7 1000.6
06 14.02 В 2 12 км 9/9 500 м
[Sc]
-7.8 -9.6 87 -12 -12 1022.8 1001.7 -8.5 14
09 14.02 ЮВ 2 11 км 9/9 540 м
[Sc]
-6.3 -8.2 86 -11 -10 1023.7 1002.7
12 14.02 В 2 14 км 9/9 600 м
[Sc]
-4.8 -8.4 76 -9 -9 1023.8 1002.9
15 14.02 ЮВ 2 14 км 9/9 700 м
[Sc]
-4.9 -8.5 76 -9 -9 1024.6 1003.7
18 14.02 ЮВ 2 14 км 5/0
[Ci fib]
-7.4 -10.8 77 -12 -12 1026.4 1005.2 -4.3
21 14.02 В 1 8000 м слабый снег 10/0 360 м
[As op]
-9.2 -10.8 88 -12 -12 1027.2 1006.0
00 15.02 В 2 6000 м слабый снег 10/0 450 м
[As op]
-9.4 -10.6 91 -14 -14 1027.6 1006.3
03 15.02 ЮВ 2 6000 м дымка {снег} 5/0
[Ci sp]
-9.6 -10.4 94 -14 -14 1027.9 1006.6
06 15.02 В 2 3500 м дымка {снег} 8/0
[Ci sp]
-11.4 -11.4 100 -16 -16 1028.9 1007.5 -12.1 0.2 13
09 15.02 ЮВ 1 5000 м дымка 9/0
[Ac und]
-7.4 -8.3 93 -10 -8 1029.9 1008.6
12 15.02 ЮВ 2 15 км 9/0
[Ac und]
-6.0 -7.9 86 -10 -9 1029.4 1008.3
15 15.02 ЮВ 1 17 км 9/0
[Ac und]
-5.3 -7.8 83 -8 -8 1029.3 1008.2
18 15.02 штиль 0 18 км 9/9 930 м
[Sc]
-5.2 -7.7 83 -6 -6 1029.2 1008.2 -5.0
21 15.02 Ю 1 14 км 9/9 1080 м
[Sc]
-4.9 -7.0 85 -7 -7 1028.8 1007.8
00 16.02 Ю 1 11 км 9/9 1200 м
[Sc]
-4.9 -5.9 93 -7 -7 1028.0 1007.1
03 16.02 Ю 2 8000 м дымка 10/10 360 м
[St]
-4.7 -5.3 96 -9 -9 1027.5 1006.6
06 16.02 Ю 2 5000 м слабый снег 10/0 240 м
[As op]
-4.2 -4.4 99 -9 -9 1026.2 1005.3 -5.5 0.2 12
09 16.02 Ю 2 2800 м снег 10/0 240 м
[As op]
-2.6 -4.2 89 -7 -6 1025.5 1004.8
12 16.02 Ю 2 4200 м слабый снег 10/0 360 м
[As op]
-1.2 -3.2 86 -5 -4 1024.4 1003.8
15 16.02 Ю 2 1300 м снег 10/0 210 м
[As op]
-1.0 -1.6 96 -5 -5 1023.2 1002.9
18 16.02 ЮЗ 3 6000 м дымка {снег} 10/10 270 м
[St]
-0.5 -1.1 96 -5 -5 1023.4 1002.8 -0.5 1
21 16.02 ЮЗ 2 4000 м дымка 10/10 300 м
[St]
-0.7 -1.3 96 -5 -5 1022.3 1001.8
00 17.02 ЮЗ 3 3700 м дымка {снег} 10/10 360 м
[St]
-1.0 -1.6 96 -6 -6 1022.2 1001.7
03 17.02 З 3 3800 м дымка 10/10 240 м
[St]
-0.6 -1.2 96 -6 -6 1022.2 1001.7
06 17.02 ЮЗ 4 3200 м дымка 9/6 600 м
[Sc Ci fib]
-0.8 -1.4 96 -7 -7 1021.9 1001.4 -1.2 0.0 13
09 17.02 ЮЗ 5 10 км 8/0
[Ac und]
+0.1 -1.7 88 -6 -5 1020.9 1000.4
12 17.02 З 7 15 км 9/9 630 м
[Sc]
+0.8 -1.5 85 -6 -6 1019.7 999.4
15 17.02 ЮЗ 6 12 км 9/9 1200 м
[Sc]
+0.4 -1.6 86 -6 -6 1019.4 998.9
18 17.02 З 6 10 км 9/0
[Ac und]
+0.3 -0.8 92 -6 -6 1019.4 998.9 +1.1
21 17.02 СЗ 5 13 км {снег} 9/9 600 м
[Sc]
-0.1 -1.6 90 -6 -6 1019.5 999.0
00 18.02 СЗ 3 11 км {снег} 9/9 900 м
[Sc]
-3.9 -6.0 85 -9 -9 1020.3 999.5
03 18.02 СЗ 2 10 км 9/9 840 м
[Sc]
-5.2 -6.9 88 -10 -10 1020.6 999.8
06 18.02 С 3 12 км 9/9 700 м
[Sc]
-3.2 -5.3 85 -8 -8 1020.9 1000.3 -6.0 0.3 10
09 18.02 СЗ 5 14 км 9/9 870 м
[Sc]
-2.9 -5.6 82 -10 -9 1021.1 1000.5
12 18.02 СЗ 5 18 км 9/9 750 м
[Sc]
-2.5 -5.1 82 -9 -9 1021.7 1001.1
15 18.02 СЗ 4 7000 м слабый снег 9/9 720 м
[Sc]
-3.0 -4.7 88 -9 -9 1022.6 1002.0
18 18.02 С 4 8000 м слабый снег 9/9 800 м
[Sc]
-3.6 -5.0 90 -10 -10 1023.8 1002.9 -2.3 0.5
21 18.02 С 4 12 км 9/9 900 м
[Sc]
-4.4 -6.0 89 -11 -11 1024.3 1003.4
00 19.02 СЗ 3 12 км 9/9 800 м
[Sc]
-4.8 -7.6 81 -10 -10 1024.6 1003.7
03 19.02 З 3 9000 м слабый снег 9/9 600 м
[Sc]
-5.4 -6.4 93 -11 -11 1023.8 1002.8
06 19.02 СЗ 4 12 км {снег} 9/4 600 м
[Sc Ac und]
-4.1 -5.0 93 -11 -10 1023.7 1002.8 -6.0 0.3 11
09 19.02 З 5 10 км снег 10/0 500 м
[As op]
-3.1 -4.5 90 -10 -10 1023.8 1003.1
12 19.02 СЗ 4 10 км слабый снег 10/0
[As op]
-1.3 -3.2 87 -7 -7 1023.6 1003.0
15 19.02 С 2 17 км {снег} 10/10 420 м
[St]
-1.8 -3.0 91 -6 -6 1024.1 1003.4
18 19.02 СВ 2 14 км {снег} 9/9 540 м
[Sc]
-2.2 -3.7 89 -6 -6 1024.7 1004.0 -1.2 0.3
21 19.02 С 1 10 км слабый снег 10/0 540 м
[As op]
-2.8 -4.1 91 -5 -5 1024.7 1004.0

 

Местоположение метеостанции Слуцк (Минская область, Беларусь): широта 53.03 долгота 27.55 высота над уровнем моря 162 м.

В архиве по умолчанию представлена погода в Слуцке за последнюю неделю. Архивные данные за месяц целиком и за предыдущие месяцы, начиная с января 2011 года, Вы можете получить, выбрав интересующий диапазон дат из раскрывающегося списка и нажав кнопку "Ввод!".

Внимание! Время в таблицах - всемирное. Для получения местного времени необходимо прибавить поправку, которая в Слуцке равна 3 ч.

Смотрите также архив погоды в соседних городах и на ближайших метеорологических станциях:

Погода в Марьиной Горке (Минская область, Беларусь) (61 км)
Погода в Столбцах (Минская область, Беларусь) (74 км)
Погода в Ганцевичах (Брестская область, Беларусь) (81 км)
Погода в Житковичах (Гомельская область, Беларусь) (93 км)
Погода в Октябре (Гомельская область, Беларусь) (99 км)
Погода в Полесской (Брестская область, Беларусь) (99 км)
Погода в Минске (город Минск, Беларусь) (100 км)
Погода в Барановичах (Брестская область, Беларусь) (106 км)
Погода в Бобруйске (Могилевская область, Беларусь) (107 км)
Погода в Кличеве (Могилевская область, Беларусь) (129 км)

Пояснения к столбцам:

Ветер - указаны скорость ветра в м/с - средняя за 10 мин, порывы в срок и между сроками (в фигурных скобках) и направление, откуда дует ветер: С - северный, СВ - северо-восточный, В - восточный, ЮВ - юго-восточный, Ю - южный, ЮЗ - юго-западный, З - западный, СЗ - северо-западный.
Видимость - горизонтальная дальность видимости в метрах или километрах. При видимости от 1 до 10 км при отсутствии осадков обычно наблюдается дымка, при ухудшении видимости до 1 км и менее - туман. В сухую погоду видимость может ухудшаться дымом, пылью или мглою.
Явления - указаны атмосферные явления, наблюдавшиеся в срок или в последний час перед сроком; фигурными скобками обозначены явления, наблюдавшиеся между сроками (за 1-3 часа до срока); квадратными скобками обозначены град или гололедные отложения с указанием их диаметра в мм.
Облачность - указаны через наклонную черту общая и нижняя облачность в баллах и высота нижней границы облаков в метрах; квадратными скобками обозначены формы облаков: Ci - перистые, Cs - перисто-слоистые, Cc - перисто-кучевые, Ac - высококучевые, As - высокослоистые, Sc - слоисто-кучевые, Ns - слоисто-дождевые, Cu - кучевые, Cb - кучево-дождевые. Подробнее классификацию облаков см. в Атласе облаков (PDF).
T - Температура воздуха - температура, измеренная на высоте 2 м над землей.
Td - Температура точки росы - температура, при понижении до которой содержащийся в воздухе водяной пар достигнет насыщения.
f - Относительная влажность воздуха - влажноcть воздуха, измеренная на высоте 2 м над землей.
Te - Эффективная температура - температура, которую ощущает одетый по сезону человек в тени. Характеристика душности погоды. При расчете учитывается влияние влажности воздуха и скорости ветра на теплоощущения человека.
Tes - Эффективная температура на солнце - температура, которую ощущает человек, с поправкой на солнечный нагрев. Характеристика знойности погоды. Зависит от высоты солнца над горизонтом, облачности и скорости ветра. Ночью, в пасмурную погоду, а также при ветре 12 м/с и более поправка равна нулю.
P - Атмосферное давление - приведенное к уровню моря атмосферное давление.
Po - Атмосферное давление - измеренное на уровне метеостанции атмосферное давление.
Tmin - Минимальная температура - минимум температуры воздуха на высоте 2 м над землей.
Tmax - Максимальная температура - максимум температуры воздуха на высоте 2 м над землей.
R - Количество осадков - Количество выпавших осадков за период времени, мм. При наведении курсора мыши на число - период времени, за который выпало указанное количество осадков.
R24 - Количество осадков - Количество выпавших осадков за 24 часа, мм.
S - Снежный покров - Высота снежного покрова, см. При наведении курсора мыши на число - состояние снежного покрова и степень покрытия местности в баллах.